Location: George Washington National Forest Helicopter Landing Site
(38.6463°N, 79.0851°W)
Time: 15:47:15
(UTC-04:00)

Tiros 1 despin weight - Pass Details

Date: 26 August 2019
Orbit: 594 x 642 km, 48.2° (Epoch: 22 September)

Event Time Altitude Azimuth Distance (km) Brightness Sun altitude
Rises 23:05:39 0° 243° (WSW) 2,816 - -32.2°
Reaches altitude 10° 23:07:56 10° 245° (WSW) 1,919 - -32.5°
Maximum altitude 23:12:19 70° 330° (NNW) 634 - -33.1°
Drops below altitude 10° 23:16:46 10° 54° (NE) 1,943 - -33.6°
Sets 23:19:05 0° 57° (ENE) 2,855 - -33.8°
